Starlink 31645

operational
NORAD ID: 59264 Int'l Des: 2024-050 Owner: SPXS Country: US Constellation: starlink
LEOCIRCULAR

About Starlink 31645

Description loading...

Live Position

Loading 3D Globe...

Upcoming Passes

Altitude History

Altitude vs Time

uPlot chart will show altitude changes over time

Two-Line Element Set

1 59264U 24050L 25306.50058014 .00029091 00000-0 98988-3 0 9992
2 59264 53.1610 51.8940 0001436 99.6997 260.4166 15.30219354 91079
Epoch: Nov 2, 2025 • Age: 32 hours

Current Status

Altitude 478.5 km
Velocity 7.63 km/s
Sub-Earth Point -13.05°S, 110.99°W
Launch Date Mar 19, 2024
Age 1.6 years
Type internet

Technical Details

Classification Payload
Mass 730.00 kg
Dry Mass 700.00 kg
Total Mass 730.00 kg
Length 0.30 m
Diameter 4.10 m
Span 29.00 m
Shape Box + pan
Manufacturer SPXS
Bus Type Starlink V2M
Phase Status In Orbit
Owner/State SPXS/US

Large Constellations

Loading constellations...